Tracking 31027 objects as of 19-Jul-2025
HD Live streaming from Space Station
objects crossing your sky now

STARLINK-5394

Track STARLINK-5394 now!
10-day predictions
STARLINK-5394 is classified as:


NORAD ID: 54830
Int'l Code: 2022-177L
Perigee: 565.4 km
Apogee: 567.0 km
Inclination: 43.0 °
Period: 95.8 minutes
Semi major axis: 6937 km
RCS: Unknown
Launch date: December 28, 2022
Source: United States (US)
Launch site: AIR FORCE EASTERN TEST RANGE (AFETR)
Your satellite tracking list
SL-12 R/B(2)
Track 1 satellite(s)




NASA's NSSDC Master Catalog

Two Line Element Set (TLE):
1 54830U 22177L   25199.39947952  .00000370  00000-0  42448-4 0  9999
2 54830  43.0038 326.2545 0001195 270.6677  89.4028 15.02537067141719
Source of the keplerian elements: AFSPC